Wetbulb
60.09 59.78 59.48 59.11 58.73 59.19 59.63 59.54 58.38 58.41 58.94 59.41 59.03 58.89 58.76 58.57 58.37 58.35 58.30 58.40 58.06 57.92 57.73 57.82 57.48 57.29 56.93 56.81 55.89 54.94 54.25 54.05 54.07 53.48 52.85 52.96 53.44 53.74 53.68 53.29 52.65 52.23 51.81 51.56 51.86 51.84 51.65 51.46 51.24 50.64 49.82 49.30 49.55 49.84 50.16 50.49 50.64 50.35 49.82 49.28 49.03 49.29 49.58 49.51 49.21 49.16 49.23 49.27 49.06
60.13 59.91 59.04 57.25 57.14 58.23 59.39 59.09 58.60 58.45 58.82 59.81 59.55 59.31 59.18 58.99 58.71 58.65 58.63 58.68 58.69 58.69 58.59 58.56 58.35 58.16 57.84 57.25 56.28 55.49 54.71 54.23 54.09 53.65 53.25 53.35 53.71 53.94 53.80 53.35 52.69 52.20 51.71 51.63 51.86 51.92 51.78 51.68 51.15 50.50 49.77 49.31 49.34 49.49 49.79 50.38 50.68 50.29 49.69 49.26 48.86 48.94 49.06 48.98 49.08 49.24 49.35 49.13 49.23
60.13 60.03 59.67 59.19 59.08 59.20 59.38 59.25 59.13 59.15 59.35 59.66 59.75 59.72 59.54 59.36 59.07 58.94 58.85 59.02 59.27 59.24 59.19 58.88 58.81 58.70 58.24 57.65 56.85 56.13 55.50 54.94 54.46 54.09 53.69 53.53 53.81 53.80 53.72 53.21 52.66 51.93 51.33 51.57 51.98 52.09 51.97 51.97 51.19 50.18 49.34 49.12 49.16 49.16 49.29 49.91 49.97 49.60 49.31 49.07 48.92 48.72 48.42 48.14 48.66 48.88 48.68 48.34 48.77
60.16 60.08 59.89 59.63 59.47 59.37 59.33 59.21 59.27 59.27 59.33 59.46 59.72 59.75 59.58 59.58 59.41 59.30 59.29 59.41 59.40 59.29 59.12 59.15 59.16 58.87 58.44 57.67 57.06 56.60 55.90 54.65 54.67 54.32 53.78 53.45 53.65 53.74 53.51 52.99 52.43 52.02 51.67 51.74 52.06 52.21 52.21 52.22 51.45 50.48 49.84 49.66 49.49 49.22 49.09 49.05 49.16 48.99 48.86 49.18 48.97 48.58 48.03 47.67 47.95 47.71 47.44 47.60 48.00
60.13 60.08 59.91 59.77 59.67 59.61 59.65 59.65 59.60 59.51 59.43 59.47 59.54 59.54 59.54 59.58 59.43 59.52 59.39 59.11 59.05 59.07 59.27 59.52 59.49 59.01 58.52 58.09 57.54 56.96 56.31 55.41 53.51 53.51 54.09 53.63 53.66 53.59 53.33 52.72 52.25 51.85 51.64 51.57 51.89 52.07 52.19 52.19 51.58 51.00 50.59 50.29 49.66 49.46 49.51 49.73 49.40 49.03 48.86 48.97 48.56 48.19 47.74 47.37 46.97 46.64 46.64 46.92 47.20
60.09 60.18 60.22 60.15 60.03 59.91 59.85 59.90 59.87 59.91 59.66 59.57 59.31 59.19 59.13 59.19 59.31 59.24 59.17 59.16 59.27 59.58 59.45 58.72 58.43 58.09 58.01 58.47 57.74 57.15 56.64 56.23 54.76 54.41 54.36 53.89 53.71 53.64 53.28 52.42 52.12 51.79 51.60 51.42 51.62 51.79 51.86 51.83 51.17 51.01 50.92 50.52 50.09 50.17 50.34 50.41 49.68 49.01 48.62 48.42 48.05 47.79 47.47 47.04 46.66 46.59 46.44 46.41 46.78
60.18 60.14 60.09 60.11 60.07 59.93 59.81 59.94 59.98 59.96 59.82 59.47 59.29 59.11 59.09 59.13 59.22 59.39 59.38 59.49 59.66 59.52 58.99 57.59 57.78 58.04 58.34 58.51 57.76 57.06 56.56 56.21 55.47 54.97 54.41 54.12 54.04 53.58 52.95 52.23 51.79 51.68 51.60 51.36 51.23 51.26 51.29 51.34 50.89 50.49 49.99 49.20 49.53 49.94 50.34 50.37 49.73 48.91 48.13 47.87 47.71 47.42 47.27 47.09 46.97 46.74 46.44 46.54 46.71
60.19 60.17 60.03 60.15 60.05 59.89 59.81 59.89 59.88 59.85 59.55 59.23 59.09 59.17 59.29 59.37 59.39 59.38 59.60 59.60 59.47 59.25 58.94 58.21 58.75 58.94 58.82 58.51 57.70 57.07 56.49 56.08 55.65 55.04 54.62 54.29 54.04 53.66 52.97 52.23 51.74 51.49 51.38 51.19 50.92 50.86 50.99 51.01 50.76 50.74 50.59 49.87 49.40 49.48 49.78 49.99 49.54 48.81 48.13 47.72 47.59 47.54 47.56 47.44 47.41 47.07 46.86 46.66 46.70
60.05 60.05 60.21 60.18 60.15 60.05 59.91 59.86 59.92 59.73 59.47 59.11 59.07 59.23 59.35 59.35 59.35 59.26 59.32 59.23 59.00 58.91 59.00 58.91 58.79 58.80 58.77 58.59 57.93 57.24 56.62 56.02 55.73 55.32 54.75 54.26 53.73 53.33 52.88 52.23 51.57 51.28 51.17 51.21 51.08 50.96 50.85 50.66 50.65 50.83 50.81 50.10 49.47 49.24 49.22 49.41 49.08 48.66 48.34 47.97 47.85 47.70 47.65 47.51 47.43 47.37 47.16 46.93 46.80
59.78 59.94 60.10 60.10 60.22 60.16 59.97 59.88 59.84 59.69 59.49 59.25 59.29 59.25 58.68 57.20 58.17 58.87 59.23 58.89 58.68 58.88 59.07 59.07 58.86 58.63 58.41 58.18 57.84 57.39 56.85 56.28 55.95 55.46 54.85 53.96 53.27 52.95 52.76 52.32 51.79 51.30 51.10 51.27 51.21 51.15 50.96 50.59 50.60 50.77 50.81 50.43 49.99 49.45 49.18 48.81 48.64 48.50 48.22 47.88 47.72 47.60 47.45 47.39 47.32 47.16 46.76 46.40 46.40
59.61 59.85 59.91 59.90 60.09 59.86 59.64 59.87 59.58 59.35 59.19 59.29 59.23 59.13 58.65 57.38 58.12 58.67 58.89 58.86 58.79 58.86 58.97 59.01 58.82 58.32 57.90 57.72 57.64 57.31 56.91 56.42 56.10 55.67 55.11 54.21 53.30 53.05 53.08 52.89 52.39 51.89 51.43 51.43 51.47 51.21 50.81 50.44 50.42 50.59 50.61 50.43 50.10 49.72 49.10 48.45 48.25 48.18 48.09 47.85 47.65 47.42 47.04 46.98 46.93 46.72 46.44 45.98 46.05
59.58 59.75 59.83 59.91 60.00 59.90 59.63 59.62 59.34 59.10 59.05 59.07 59.09 59.03 59.05 58.97 58.95 58.65 58.47 58.80 58.72 58.72 58.78 58.86 58.61 58.22 57.74 57.35 57.39 57.05 56.73 56.59 56.04 55.67 55.34 54.81 54.02 53.50 53.32 53.27 52.97 52.48 52.01 51.75 51.56 51.10 50.70 50.38 50.35 50.37 50.40 50.41 50.10 49.79 49.42 48.54 48.09 47.82 47.77 47.65 47.50 47.07 46.74 46.58 46.46 46.29 46.09 45.85 45.77
59.34 59.43 59.52 59.68 59.72 59.61 59.47 59.25 59.07 59.07 58.91 58.92 58.92 58.96 58.99 59.05 58.76 58.41 58.29 58.58 58.41 58.40 58.55 58.60 58.34 58.03 57.66 57.37 57.34 57.10 56.84 56.46 56.00 55.55 55.28 55.12 54.52 53.87 53.41 53.31 53.17 52.81 52.42 51.99 51.76 51.21 50.83 50.59 50.44 50.44 50.37 50.34 50.21 50.07 49.75 48.86 47.97 47.51 47.31 47.09 46.93 46.75 46.60 46.53 46.29 46.12 45.94 45.72 45.58
59.04 59.05 59.13 59.14 59.19 59.22 59.02 58.88 58.76 58.79 58.79 58.69 58.88 58.90 59.00 59.17 58.65 58.26 58.26 58.41 58.32 58.35 58.43 58.33 57.87 57.56 57.33 57.42 57.26 57.04 56.72 56.33 55.80 55.52 55.18 55.07 54.76 54.18 53.47 52.99 53.02 52.74 52.32 52.03 51.87 51.49 51.13 50.89 50.81 50.66 50.56 50.43 50.21 50.14 49.83 49.06 47.86 47.21 46.98 46.76 46.49 46.51 46.62 46.58 46.39 45.99 45.63 45.32 45.24
58.44 58.58 58.66 58.66 58.63 58.51 58.39 58.41 58.38 58.44 58.47 58.60 58.73 58.81 58.88 59.05 58.46 58.15 58.10 58.45 58.38 58.37 58.42 58.26 57.88 57.42 57.11 57.25 57.14 57.00 56.62 56.15 55.68 55.22 54.92 54.89 54.80 54.34 53.57 52.88 52.63 52.32 52.12 51.97 52.01 51.69 51.43 51.21 51.15 50.97 50.83 50.55 50.24 50.09 49.73 48.88 47.94 47.35 47.01 46.82 46.58 46.43 46.33 46.26 46.00 45.61 45.24 45.06 44.84
57.31 57.62 57.89 58.04 57.95 57.82 57.71 57.84 57.89 58.01 58.18 58.25 58.56 58.70 58.83 58.77 58.66 58.37 57.99 58.21 58.29 58.35 58.32 58.15 58.04 57.89 57.49 56.61 56.62 56.58 56.38 56.03 55.42 55.05 54.58 54.46 54.60 54.28 53.79 53.03 52.45 52.15 52.09 52.02 51.93 51.80 51.64 51.64 51.64 51.35 51.07 50.68 50.31 49.89 49.38 48.54 47.85 47.41 47.29 47.29 47.00 46.59 46.17 45.70 45.36 45.00 44.77 44.94 44.66
56.29 56.86 57.19 57.28 57.19 57.17 57.19 57.40 57.65 57.74 57.82 58.05 58.27 58.40 58.53 58.65 58.62 58.04 57.48 57.27 57.87 57.96 57.94 57.98 58.01 57.95 57.47 56.39 56.22 56.08 55.96 55.64 55.10 54.68 54.30 54.03 54.13 54.12 53.81 53.28 52.72 52.43 52.34 52.19 51.87 51.52 51.42 51.41 51.69 51.64 51.27 50.61 50.04 49.50 48.94 48.22 47.59 47.28 46.98 47.04 47.02 46.87 46.48 45.71 45.32 45.05 44.83 44.51 44.32
55.96 56.37 56.70 56.62 56.53 56.78 57.06 56.82 57.08 57.31 57.60 57.82 57.94 58.13 58.09 58.15 57.98 57.68 57.29 56.89 57.48 57.47 57.52 57.58 57.65 57.58 57.45 57.12 56.49 55.70 55.24 55.32 54.91 54.50 54.21 53.96 53.86 53.91 53.73 53.52 53.20 52.92 52.66 52.13 51.43 51.16 50.98 50.49 50.46 50.74 50.86 50.20 49.64 49.11 48.70 48.08 47.56 47.26 47.07 47.01 47.22 47.49 47.53 46.81 46.51 46.04 45.57 44.94 44.43
55.74 55.95 56.22 56.38 56.43 56.73 56.70 56.63 57.17 57.13 57.11 56.96 57.15 57.29 57.46 57.50 57.44 57.48 57.45 57.47 57.09 57.11 57.21 57.24 57.34 57.38 57.45 57.35 56.72 55.49 54.59 54.99 54.91 54.52 54.18 53.98 53.75 53.69 53.54 53.49 53.34 52.98 52.46 51.75 51.15 51.10 51.12 50.49 49.88 50.08 50.25 49.88 49.41 49.02 48.61 48.18 47.84 47.83 47.85 47.72 47.84 48.13 48.15 48.02 47.74 47.16 46.68 45.98 45.33
55.82 55.82 55.95 56.21 56.44 56.75 56.82 56.83 56.98 57.12 57.36 57.58 57.55 57.23 56.82 56.94 57.11 57.24 57.22 57.45 57.29 57.31 57.35 57.20 57.23 57.18 57.28 57.32 56.80 55.69 54.59 54.45 54.62 54.45 54.08 53.99 53.69 53.48 53.39 53.43 53.14 52.72 52.17 51.55 51.12 51.21 51.32 50.95 50.44 50.37 50.47 50.53 49.80 49.24 49.02 48.85 48.34 48.21 48.16 48.10 48.15 48.29 48.52 48.56 48.14 47.78 47.47 47.11 46.59
56.11 56.15 56.12 56.22 56.35 56.52 56.86 57.10 57.21 57.45 57.71 57.75 57.53 57.22 57.01 57.43 57.60 57.46 57.11 57.18 57.49 57.45 57.39 57.21 57.11 56.96 56.95 56.91 56.32 55.47 54.51 53.78 54.13 54.19 53.99 53.89 53.54 53.48 53.37 53.26 53.10 52.69 52.25 51.72 51.51 51.48 51.43 51.30 51.22 51.20 51.25 51.46 50.17 49.38 48.94 48.73 48.30 48.09 48.01 48.03 48.16 48.43 48.79 49.04 48.67 48.27 48.00 47.78 47.34
56.77 56.72 56.66 56.68 56.53 56.61 56.72 57.07 57.14 57.36 57.52 57.63 57.68 57.66 57.61 57.78 57.65 57.52 57.52 57.53 57.47 57.19 57.02 56.89 56.95 56.82 56.52 56.24 55.32 54.49 53.68 53.06 53.56 53.67 53.73 53.56 53.54 53.57 53.48 53.29 53.06 52.63 52.33 52.11 52.07 52.13 52.30 52.32 52.41 52.29 51.74 50.96 49.95 49.09 48.40 47.93 47.84 47.80 47.94 48.25 48.39 48.66 48.88 49.17 48.90 48.50 48.15 48.02 47.71
57.60 57.52 57.35 57.26 57.16 56.59 56.34 56.70 57.19 57.34 57.36 57.60 57.66 57.86 57.90 57.81 57.87 58.00 58.07 58.08 57.63 57.50 57.51 57.60 58.16 57.76 57.11 56.39 55.38 54.24 53.40 52.84 53.09 53.26 53.41 53.56 53.86 54.09 54.11 53.78 53.55 53.23 52.97 53.01 53.26 53.92 54.35 53.90 52.81 51.78 50.81 49.95 49.51 48.90 48.24 47.80 48.03 48.26 48.43 48.52 48.57 48.57 48.66 48.61 48.47 48.25 48.03 47.76 47.36
58.41 58.30 58.03 57.75 57.61 57.23 56.85 56.97 57.00 57.04 57.08 57.19 57.35 57.56 57.77 57.96 58.16 58.28 58.37 58.35 58.07 58.21 58.38 58.72 58.85 58.24 57.30 56.59 56.08 55.04 54.13 53.42 53.13 53.00 52.97 53.18 53.80 54.36 54.89 54.84 54.49 54.14 54.09 54.55 54.16 53.81 53.21 52.23 51.33 50.45 49.61 49.35 49.23 49.05 49.01 48.97 48.92 49.05 49.14 49.01 48.70 48.52 48.25 48.02 47.89 47.72 47.54 47.27 47.05
59.23 58.97 58.71 58.28 57.99 57.51 57.13 56.86 56.80 56.85 56.93 57.04 57.30 57.49 57.65 57.81 58.03 58.17 58.32 58.35 58.37 58.95 59.44 59.57 58.96 58.04 57.23 56.69 56.11 55.29 54.59 54.05 53.56 53.35 53.24 53.40 53.50 53.61 53.73 54.05 53.96 54.28 54.38 53.60 48.67 46.91 46.82 47.40 48.79 49.50 49.77 49.73 49.95 50.00 50.00 49.85 49.86 49.82 49.59 49.42 48.87 48.33 47.93 47.57 47.31 47.26 47.18 47.18 47.04
59.86 59.59 59.31 58.80 58.34 57.89 57.39 56.88 56.71 56.74 56.83 57.22 57.38 57.49 57.52 57.62 57.83 58.04 58.19 58.40 58.87 59.72 60.32 60.23 58.71 56.95 55.83 56.41 56.21 55.57 54.94 54.53 54.62 54.46 54.11 53.72 53.43 52.81 52.44 52.83 53.34 54.14 53.48 49.83 45.00 43.57 43.88 44.60 45.48 46.91 48.80 50.95 50.87 50.82 50.78 50.69 50.46 50.15 49.92 49.72 48.86 48.15 47.62 47.27 47.22 47.22 47.22 47.26 47.26
60.12 60.09 59.85 59.42 58.89 58.44 57.96 57.46 57.24 57.09 57.07 57.11 57.23 57.29 57.49 57.77 57.82 57.83 57.86 58.23 59.02 60.04 60.46 59.95 59.12 56.38 54.56 56.23 56.54 56.34 55.80 55.48 55.64 55.37 54.82 54.04 53.14 52.44 51.99 52.11 52.64 52.99 51.46 46.11 43.26 42.68 43.43 44.09 44.35 45.33 47.36 51.14 51.41 51.32 51.10 51.01 50.64 50.33 49.78 49.31 48.68 48.10 47.71 47.40 47.54 47.63 47.58 47.67 47.62
59.95 60.19 60.26 59.92 59.43 59.03 58.61 58.33 57.90 57.54 57.32 57.24 57.30 57.48 57.63 57.94 57.87 57.72 57.68 57.80 58.80 59.71 60.01 59.32 59.06 57.60 56.32 56.18 56.42 56.56 56.57 56.51 56.08 55.39 54.54 53.44 53.22 52.70 52.22 51.95 52.35 51.20 48.40 43.72 43.01 43.19 43.76 44.43 44.65 44.96 45.96 48.18 51.29 52.00 51.58 51.27 50.77 50.23 49.73 49.23 48.73 48.28 47.92 47.79 47.87 48.06 48.11 48.07 47.67
59.95 60.18 60.34 60.09 59.61 59.31 58.96 58.74 58.40 58.11 57.97 57.82 57.82 57.85 57.94 57.98 57.87 57.77 57.79 57.86 58.14 58.45 58.77 58.93 58.64 58.26 57.66 56.53 56.32 56.50 56.56 56.45 55.81 54.80 53.81 53.24 52.90 52.68 52.66 52.42 52.02 49.47 45.74 42.26 43.17 43.93 44.47 44.83 44.78 44.60 44.92 46.37 50.03 51.83 52.09 51.50 50.81 50.27 49.68 49.35 48.85 48.53 48.35 48.21 48.17 48.18 48.10 48.11 47.62
59.90 60.29 60.31 60.04 59.70 59.32 58.99 58.89 58.89 58.83 58.69 58.55 58.40 58.22 58.05 58.02 57.81 57.83 57.76 57.84 57.90 58.16 58.57 59.13 59.07 58.65 57.99 57.51 57.21 56.94 56.57 56.13 55.52 54.57 53.53 52.82 52.21 52.08 52.07 51.89 51.77 49.16 45.37 41.88 43.52 44.42 44.83 45.05 44.74 44.28 44.01 44.24 47.77 50.65 52.26 51.86 51.05 50.31 49.67 49.51 49.36 49.13 49.03 48.94 48.85 48.51 48.26 48.09 47.61
59.76 60.30 60.34 60.02 59.70 59.36 59.18 59.15 59.27 59.26 59.19 59.12 58.82 58.59 58.29 58.00 57.87 57.93 57.96 58.16 58.29 58.22 58.38 59.38 59.24 58.77 58.31 58.20 58.00 57.73 57.22 56.36 55.23 54.25 53.43 52.82 51.53 51.61 52.23 52.24 51.60 48.76 44.96 41.93 43.65 44.55 45.01 45.19 44.74 44.19 43.56 42.83 45.96 49.48 51.85 51.94 51.23 50.68 50.30 50.17 50.10 49.86 49.59 49.30 49.13 48.79 48.32 47.98 47.68
59.33 59.75 59.88 59.57 59.29 59.24 59.29 59.39 59.37 59.55 59.42 59.36 59.16 58.81 58.52 58.23 58.35 58.46 58.58 58.40 58.53 58.87 59.16 59.49 59.10 58.88 58.60 58.53 58.28 58.09 57.68 56.60 55.15 54.27 53.71 53.36 53.02 52.58 52.29 51.85 51.33 48.53 44.87 42.11 43.65 44.46 44.83 45.01 44.55 44.01 43.19 42.11 44.55 48.17 51.17 51.72 51.36 50.90 50.62 50.50 50.46 50.12 49.66 49.08 48.73 48.48 48.22 47.92 47.85
58.72 58.84 58.92 58.97 59.10 59.20 59.38 59.68 59.79 59.71 59.66 59.50 59.33 59.18 58.99 58.79 58.93 59.00 59.01 58.75 58.69 59.03 59.28 59.12 58.72 58.54 58.49 58.50 58.43 58.22 57.45 56.13 54.70 53.50 52.75 53.20 53.30 52.79 51.98 51.43 51.26 48.13 44.42 42.20 43.47 44.10 44.46 44.55 44.19 43.65 42.92 41.56 44.15 47.68 50.46 51.32 51.23 50.87 50.42 50.36 50.24 49.97 49.54 49.08 48.64 48.38 48.25 48.22 48.14
58.48 58.43 58.39 58.32 58.59 58.91 59.38 59.90 59.99 59.82 59.51 59.37 59.31 59.33 59.29 59.18 59.01 59.02 58.73 58.41 58.69 59.01 59.15 59.20 59.01 58.99 59.04 59.22 58.87 58.18 56.94 54.97 54.44 53.76 53.20 52.99 52.95 52.28 51.73 51.61 51.54 48.13 44.10 42.29 43.29 43.74 43.92 43.92 43.65 43.29 42.56 41.20 44.06 47.05 49.48 50.51 50.78 50.78 50.51 50.24 50.18 49.87 49.43 48.87 48.64 48.60 48.51 48.43 48.12
58.49 58.46 58.40 58.37 58.50 58.99 59.45 60.07 59.99 59.68 59.36 59.07 59.09 59.27 59.47 59.55 59.45 59.29 58.88 58.14 58.17 58.97 59.66 59.65 59.77 59.84 59.77 59.69 58.95 57.85 56.46 54.91 54.12 53.54 53.05 52.85 52.35 51.85 51.37 51.56 51.40 47.90 44.01 42.74 43.19 43.47 43.56 43.38 43.19 42.74 42.29 41.79 44.65 47.14 48.85 49.66 50.11 50.34 50.42 50.37 50.19 49.85 49.38 48.64 48.54 48.44 48.47 48.27 47.91
58.68 58.88 58.91 59.19 59.25 59.40 59.69 60.02 59.95 59.56 59.09 58.85 58.87 59.05 59.31 59.70 59.81 59.79 59.22 57.90 58.23 59.08 59.73 59.79 59.84 59.59 59.37 59.05 57.84 56.32 55.06 54.56 53.37 52.63 52.24 52.02 51.80 51.58 51.64 51.74 51.63 48.36 44.60 43.29 43.29 43.29 43.29 43.10 42.74 42.29 42.29 43.38 45.96 47.68 48.63 49.17 49.57 49.89 49.97 50.02 50.01 49.77 49.16 48.29 47.97 47.81 47.83 47.83 47.61
59.03 59.58 59.69 59.79 59.68 59.38 59.38 59.85 59.99 59.75 59.28 58.99 59.12 59.13 59.22 59.40 59.76 59.99 59.71 58.51 59.30 59.50 59.62 59.77 59.27 58.75 58.16 57.99 56.35 55.04 54.03 53.51 52.57 51.89 51.50 50.97 51.19 51.46 51.60 51.52 52.11 49.61 46.28 44.14 43.65 43.38 43.19 43.01 42.56 42.24 42.74 44.96 47.14 48.09 48.49 48.72 49.12 49.44 49.57 49.52 49.60 49.17 48.70 47.89 47.65 47.50 47.46 47.51 46.97
59.25 59.81 59.96 59.97 59.71 59.46 59.32 59.57 59.71 59.64 59.43 59.25 59.33 59.43 59.46 59.53 59.72 59.89 59.40 57.66 59.05 59.30 59.12 59.12 58.15 57.38 56.78 56.52 54.75 53.74 53.11 52.66 51.73 51.22 51.01 51.01 51.28 51.38 51.34 51.34 52.06 51.00 48.67 45.41 43.92 43.29 43.01 42.92 42.47 42.06 42.92 45.87 47.81 48.27 48.27 48.31 48.58 48.85 49.08 49.08 49.19 48.94 48.34 47.92 47.78 47.54 47.21 46.93 44.60
58.93 59.44 59.74 60.08 59.94 59.77 59.48 59.12 59.33 59.49 59.68 59.69 59.60 59.67 59.79 59.82 59.87 59.82 59.21 57.85 59.30 59.53 58.96 58.21 56.88 55.91 54.97 53.87 52.99 52.44 52.23 52.20 51.38 50.78 50.75 51.64 51.42 50.63 50.23 51.34 52.15 51.85 49.89 45.91 43.47 42.47 42.29 42.38 42.11 41.56 42.11 45.23 47.68 48.31 48.04 47.90 47.95 48.22 48.44 48.58 48.48 48.20 47.78 47.54 47.53 47.43 47.08 46.55 42.22
58.83 59.35 60.01 60.37 60.27 59.91 59.65 59.33 59.35 59.69 60.17 60.19 59.79 59.54 59.57 59.70 59.09 58.73 58.66 58.66 59.74 59.51 58.52 57.10 55.72 54.40 53.10 51.14 51.66 51.73 51.70 51.61 51.40 51.05 50.97 51.43 50.99 49.34 48.71 51.34 52.63 52.70 50.38 44.83 41.56 40.75 41.20 41.75 41.75 41.11 41.75 45.14 47.50 48.04 47.77 47.68 47.68 47.81 47.86 47.90 47.58 47.05 46.69 46.33 46.41 46.28 46.10 45.89 42.04
58.28 58.88 59.32 59.45 59.59 59.50 59.36 59.36 59.26 59.53 59.81 59.53 59.07 58.71 58.39 58.12 57.82 57.96 58.33 58.93 58.93 58.21 57.04 55.44 54.10 53.03 51.72 49.96 50.92 51.38 51.41 51.10 51.10 51.42 51.56 50.95 50.86 49.70 49.43 52.11 53.13 52.12 48.71 42.44 39.63 39.08 39.84 40.84 41.11 40.84 41.52 44.69 47.23 47.86 47.68 47.50 47.50 47.54 47.50 47.23 46.78 46.03 45.24 44.45 43.98 43.55 43.47 43.34 42.94
MSLP
1012.26 1012.50 1012.74 1012.90 1013.06 1013.14 1013.22 1013.34 1013.50 1013.66 1013.78 1013.90 1014.06 1014.18 1014.30 1014.46 1014.62 1014.74 1014.90 1015.06 1015.18 1015.30 1015.42 1015.50 1015.70 1015.82 1015.98 1016.22 1016.42 1016.62 1016.78 1016.94 1017.10 1017.22 1017.30 1017.42 1017.54 1017.70 1017.86 1018.06 1018.22 1018.34 1018.50 1018.62 1018.78 1018.94 1019.10 1019.22 1019.38 1019.46 1019.54 1019.66 1019.66 1019.70 1019.74 1019.78 1019.86 1019.98 1020.10 1020.22 1020.30 1020.38 1020.42 1020.50 1020.58 1020.66 1020.74 1020.82 1020.90
1012.14 1012.34 1012.50 1012.74 1012.94 1013.02 1013.10 1013.22 1013.42 1013.54 1013.66 1013.78 1013.86 1013.94 1014.06 1014.22 1014.38 1014.50 1014.66 1014.78 1014.94 1015.06 1015.22 1015.34 1015.46 1015.62 1015.78 1015.98 1016.18 1016.38 1016.54 1016.70 1016.86 1017.02 1017.14 1017.22 1017.34 1017.50 1017.66 1017.86 1018.02 1018.14 1018.26 1018.38 1018.54 1018.70 1018.86 1018.94 1019.10 1019.22 1019.30 1019.38 1019.46 1019.50 1019.50 1019.54 1019.66 1019.82 1019.94 1019.94 1020.06 1020.18 1020.30 1020.38 1020.38 1020.46 1020.58 1020.70 1020.78
1012.02 1012.18 1012.38 1012.58 1012.74 1012.86 1012.98 1013.10 1013.22 1013.38 1013.50 1013.62 1013.66 1013.78 1013.90 1014.06 1014.18 1014.30 1014.42 1014.58 1014.66 1014.82 1014.94 1015.10 1015.22 1015.38 1015.54 1015.78 1015.98 1016.14 1016.30 1016.46 1016.66 1016.78 1016.94 1017.10 1017.18 1017.34 1017.50 1017.66 1017.82 1017.94 1018.06 1018.22 1018.34 1018.46 1018.58 1018.70 1018.82 1018.94 1019.06 1019.10 1019.18 1019.22 1019.26 1019.34 1019.50 1019.66 1019.70 1019.78 1019.86 1020.02 1020.14 1020.18 1020.22 1020.34 1020.46 1020.58 1020.70
1011.90 1012.06 1012.22 1012.38 1012.50 1012.66 1012.74 1012.86 1012.98 1013.14 1013.30 1013.38 1013.50 1013.62 1013.74 1013.86 1014.02 1014.14 1014.26 1014.38 1014.50 1014.66 1014.74 1014.82 1014.90 1015.10 1015.30 1015.50 1015.70 1015.90 1016.06 1016.22 1016.38 1016.58 1016.74 1016.86 1017.02 1017.18 1017.38 1017.46 1017.66 1017.78 1017.94 1018.02 1018.14 1018.22 1018.34 1018.46 1018.58 1018.70 1018.78 1018.82 1018.90 1018.94 1019.02 1019.10 1019.34 1019.50 1019.54 1019.58 1019.74 1019.90 1019.98 1020.02 1020.10 1020.22 1020.38 1020.38 1020.54
1011.78 1011.90 1012.06 1012.18 1012.34 1012.46 1012.58 1012.66 1012.78 1012.94 1013.10 1013.22 1013.34 1013.46 1013.62 1013.74 1013.86 1013.98 1014.10 1014.22 1014.34 1014.42 1014.50 1014.58 1014.66 1014.78 1015.02 1015.22 1015.50 1015.66 1015.82 1016.02 1016.22 1016.38 1016.54 1016.66 1016.82 1016.98 1017.18 1017.34 1017.46 1017.58 1017.74 1017.86 1017.94 1018.06 1018.18 1018.26 1018.38 1018.46 1018.50 1018.58 1018.66 1018.70 1018.78 1018.90 1019.14 1019.30 1019.38 1019.50 1019.66 1019.74 1019.82 1019.94 1020.02 1020.14 1020.22 1020.26 1020.42
1011.54 1011.70 1011.82 1011.98 1012.14 1012.34 1012.46 1012.50 1012.62 1012.70 1012.82 1012.98 1013.14 1013.26 1013.38 1013.54 1013.66 1013.82 1013.94 1014.02 1014.06 1014.18 1014.34 1014.50 1014.58 1014.66 1014.78 1015.06 1015.30 1015.50 1015.66 1015.82 1016.02 1016.18 1016.30 1016.46 1016.62 1016.78 1016.98 1017.14 1017.26 1017.38 1017.50 1017.66 1017.78 1017.90 1018.02 1018.10 1018.14 1018.22 1018.26 1018.38 1018.42 1018.50 1018.58 1018.78 1018.98 1019.14 1019.22 1019.34 1019.46 1019.62 1019.70 1019.78 1019.90 1020.02 1020.10 1020.14 1020.22
1011.38 1011.50 1011.66 1011.78 1011.94 1012.10 1012.22 1012.34 1012.42 1012.58 1012.70 1012.86 1012.94 1013.10 1013.22 1013.34 1013.42 1013.58 1013.70 1013.78 1013.90 1014.06 1014.22 1014.38 1014.50 1014.58 1014.66 1014.86 1015.10 1015.30 1015.46 1015.66 1015.82 1015.94 1016.06 1016.22 1016.38 1016.50 1016.70 1016.86 1017.02 1017.14 1017.26 1017.42 1017.58 1017.70 1017.82 1017.94 1017.94 1017.98 1018.06 1018.18 1018.26 1018.34 1018.38 1018.58 1018.78 1018.94 1019.02 1019.06 1019.18 1019.38 1019.50 1019.62 1019.66 1019.82 1019.94 1019.98 1020.02
1011.14 1011.30 1011.42 1011.54 1011.70 1011.86 1012.02 1012.14 1012.30 1012.46 1012.58 1012.66 1012.78 1012.86 1012.98 1013.10 1013.22 1013.38 1013.50 1013.66 1013.74 1013.86 1014.02 1014.18 1014.30 1014.38 1014.50 1014.62 1014.82 1015.02 1015.22 1015.38 1015.50 1015.70 1015.90 1015.98 1016.14 1016.26 1016.38 1016.54 1016.74 1016.90 1017.02 1017.14 1017.30 1017.46 1017.58 1017.70 1017.74 1017.78 1017.82 1017.94 1018.06 1018.14 1018.22 1018.34 1018.50 1018.62 1018.70 1018.74 1018.86 1019.02 1019.22 1019.30 1019.38 1019.50 1019.66 1019.70 1019.78
1010.94 1011.10 1011.22 1011.34 1011.50 1011.66 1011.78 1011.94 1012.06 1012.22 1012.38 1012.50 1012.54 1012.66 1012.78 1012.94 1013.02 1013.14 1013.30 1013.46 1013.50 1013.58 1013.70 1013.90 1014.02 1014.18 1014.26 1014.38 1014.54 1014.74 1014.90 1015.10 1015.22 1015.38 1015.62 1015.78 1015.94 1016.02 1016.14 1016.34 1016.46 1016.62 1016.74 1016.86 1017.02 1017.14 1017.30 1017.42 1017.50 1017.50 1017.58 1017.70 1017.78 1017.86 1017.94 1018.06 1018.22 1018.26 1018.34 1018.46 1018.54 1018.74 1018.90 1018.98 1019.10 1019.22 1019.34 1019.42 1019.50
1010.66 1010.78 1010.94 1011.14 1011.26 1011.42 1011.58 1011.78 1011.94 1012.06 1012.18 1012.26 1012.38 1012.50 1012.66 1012.78 1012.86 1012.94 1013.06 1013.10 1013.22 1013.34 1013.46 1013.54 1013.70 1013.90 1014.06 1014.22 1014.30 1014.42 1014.58 1014.78 1014.90 1015.06 1015.22 1015.46 1015.62 1015.70 1015.82 1015.98 1016.14 1016.26 1016.38 1016.54 1016.70 1016.90 1017.06 1017.18 1017.18 1017.22 1017.26 1017.38 1017.46 1017.50 1017.66 1017.82 1017.90 1017.94 1018.02 1018.14 1018.26 1018.42 1018.58 1018.74 1018.82 1018.94 1019.10 1019.18 1019.26
1010.38 1010.54 1010.70 1010.86 1011.06 1011.22 1011.38 1011.58 1011.70 1011.86 1011.94 1012.06 1012.18 1012.30 1012.42 1012.54 1012.66 1012.74 1012.78 1012.90 1013.02 1013.10 1013.18 1013.22 1013.42 1013.58 1013.74 1013.90 1013.98 1014.10 1014.30 1014.46 1014.58 1014.74 1014.90 1015.10 1015.22 1015.38 1015.46 1015.58 1015.74 1015.90 1016.06 1016.22 1016.38 1016.62 1016.78 1016.82 1016.82 1016.86 1016.94 1017.10 1017.18 1017.26 1017.38 1017.54 1017.66 1017.66 1017.70 1017.86 1017.98 1018.10 1018.30 1018.46 1018.58 1018.70 1018.82 1018.94 1019.06
1010.14 1010.30 1010.46 1010.62 1010.78 1010.98 1011.18 1011.34 1011.46 1011.58 1011.70 1011.78 1011.86 1011.98 1012.10 1012.22 1012.34 1012.46 1012.58 1012.66 1012.78 1012.82 1012.86 1012.94 1013.10 1013.26 1013.42 1013.54 1013.66 1013.78 1013.98 1014.10 1014.22 1014.38 1014.50 1014.66 1014.82 1014.98 1015.14 1015.26 1015.38 1015.50 1015.66 1015.86 1016.06 1016.26 1016.38 1016.42 1016.42 1016.50 1016.62 1016.70 1016.86 1016.98 1017.10 1017.30 1017.38 1017.46 1017.50 1017.62 1017.78 1017.90 1017.98 1018.10 1018.30 1018.46 1018.58 1018.70 1018.86
1009.90 1010.06 1010.22 1010.38 1010.54 1010.74 1010.94 1011.06 1011.14 1011.22 1011.34 1011.46 1011.50 1011.66 1011.78 1011.86 1011.98 1012.18 1012.34 1012.42 1012.46 1012.50 1012.54 1012.66 1012.78 1012.94 1013.06 1013.14 1013.26 1013.38 1013.54 1013.70 1013.86 1013.98 1014.06 1014.18 1014.38 1014.58 1014.78 1014.94 1015.10 1015.22 1015.38 1015.50 1015.74 1015.90 1015.98 1016.02 1016.06 1016.10 1016.18 1016.30 1016.50 1016.66 1016.78 1017.02 1017.18 1017.26 1017.38 1017.46 1017.62 1017.70 1017.78 1017.90 1018.06 1018.26 1018.46 1018.62 1018.74
1009.62 1009.78 1009.94 1010.06 1010.26 1010.42 1010.54 1010.66 1010.74 1010.82 1010.94 1011.02 1011.10 1011.22 1011.38 1011.50 1011.66 1011.82 1011.94 1012.06 1012.06 1012.14 1012.22 1012.34 1012.46 1012.54 1012.62 1012.70 1012.82 1012.94 1013.10 1013.26 1013.42 1013.58 1013.70 1013.82 1013.98 1014.22 1014.42 1014.62 1014.74 1014.90 1015.06 1015.22 1015.38 1015.50 1015.54 1015.62 1015.70 1015.78 1015.86 1015.98 1016.22 1016.38 1016.58 1016.78 1016.98 1017.10 1017.22 1017.34 1017.46 1017.54 1017.66 1017.82 1017.98 1018.22 1018.42 1018.58 1018.66
1009.34 1009.46 1009.54 1009.70 1009.90 1010.06 1010.18 1010.26 1010.34 1010.38 1010.50 1010.58 1010.66 1010.82 1010.98 1011.10 1011.22 1011.42 1011.54 1011.66 1011.70 1011.78 1011.90 1011.98 1012.06 1012.10 1012.18 1012.30 1012.38 1012.50 1012.66 1012.86 1013.06 1013.22 1013.34 1013.50 1013.66 1013.82 1014.06 1014.26 1014.42 1014.58 1014.70 1014.86 1015.02 1015.14 1015.22 1015.22 1015.34 1015.46 1015.62 1015.78 1015.94 1016.18 1016.42 1016.66 1016.86 1016.98 1017.10 1017.22 1017.38 1017.50 1017.66 1017.82 1017.98 1018.14 1018.34 1018.50 1018.62
1008.98 1009.06 1009.14 1009.34 1009.50 1009.66 1009.74 1009.82 1009.94 1009.98 1010.06 1010.18 1010.26 1010.46 1010.66 1010.74 1010.86 1011.02 1011.22 1011.30 1011.38 1011.46 1011.54 1011.62 1011.66 1011.70 1011.82 1011.98 1012.10 1012.22 1012.38 1012.54 1012.70 1012.86 1013.02 1013.14 1013.30 1013.42 1013.62 1013.82 1014.02 1014.18 1014.34 1014.50 1014.66 1014.78 1014.90 1014.94 1015.06 1015.18 1015.38 1015.54 1015.74 1015.98 1016.22 1016.50 1016.66 1016.86 1017.02 1017.18 1017.34 1017.50 1017.66 1017.82 1017.94 1018.06 1018.22 1018.38 1018.50
1008.66 1008.78 1008.90 1009.02 1009.10 1009.14 1009.22 1009.38 1009.50 1009.58 1009.66 1009.78 1009.94 1010.10 1010.26 1010.38 1010.50 1010.66 1010.82 1010.94 1011.10 1011.14 1011.18 1011.22 1011.22 1011.34 1011.50 1011.66 1011.82 1011.98 1012.14 1012.26 1012.42 1012.54 1012.66 1012.78 1012.94 1013.10 1013.22 1013.38 1013.58 1013.78 1013.98 1014.14 1014.30 1014.46 1014.58 1014.70 1014.86 1015.02 1015.22 1015.38 1015.62 1015.78 1016.02 1016.26 1016.50 1016.74 1016.98 1017.18 1017.34 1017.50 1017.70 1017.90 1018.06 1018.18 1018.30 1018.38 1018.50
1008.34 1008.50 1008.66 1008.70 1008.66 1008.74 1008.82 1008.94 1009.06 1009.14 1009.30 1009.50 1009.66 1009.82 1009.94 1010.10 1010.22 1010.34 1010.46 1010.58 1010.70 1010.78 1010.78 1010.82 1010.90 1011.02 1011.14 1011.30 1011.50 1011.70 1011.86 1011.98 1012.06 1012.22 1012.38 1012.50 1012.66 1012.86 1013.02 1013.14 1013.30 1013.50 1013.70 1013.90 1014.06 1014.18 1014.30 1014.50 1014.74 1014.94 1015.14 1015.34 1015.50 1015.66 1015.90 1016.14 1016.46 1016.78 1017.10 1017.30 1017.50 1017.66 1017.90 1018.10 1018.22 1018.30 1018.34 1018.34 1018.38
1007.94 1008.06 1008.22 1008.30 1008.38 1008.50 1008.66 1008.78 1008.90 1009.02 1009.10 1009.22 1009.38 1009.54 1009.74 1009.86 1009.94 1009.98 1010.06 1010.14 1010.26 1010.38 1010.42 1010.50 1010.54 1010.66 1010.78 1010.94 1011.14 1011.38 1011.54 1011.66 1011.78 1011.94 1012.14 1012.38 1012.58 1012.78 1012.94 1013.06 1013.22 1013.38 1013.54 1013.70 1013.86 1013.98 1014.14 1014.38 1014.66 1014.90 1015.10 1015.34 1015.50 1015.66 1015.90 1016.18 1016.50 1016.82 1017.14 1017.42 1017.62 1017.78 1017.98 1018.06 1018.06 1018.06 1018.02 1017.94 1017.98
1007.42 1007.58 1007.74 1007.86 1008.02 1008.22 1008.38 1008.54 1008.66 1008.82 1008.98 1009.10 1009.30 1009.38 1009.38 1009.38 1009.38 1009.50 1009.62 1009.66 1009.66 1009.78 1009.90 1009.98 1010.14 1010.26 1010.42 1010.58 1010.82 1011.10 1011.30 1011.50 1011.66 1011.86 1012.06 1012.30 1012.50 1012.66 1012.82 1012.94 1013.14 1013.26 1013.42 1013.58 1013.78 1013.94 1014.06 1014.34 1014.58 1014.82 1015.10 1015.34 1015.54 1015.78 1016.02 1016.30 1016.58 1016.86 1017.10 1017.34 1017.50 1017.58 1017.62 1017.58 1017.58 1017.58 1017.54 1017.54 1017.58
1006.94 1007.02 1007.14 1007.30 1007.50 1007.74 1007.94 1008.10 1008.30 1008.46 1008.66 1008.78 1008.90 1008.86 1008.82 1008.94 1009.10 1009.18 1009.10 1008.94 1008.98 1009.18 1009.34 1009.50 1009.66 1009.90 1010.10 1010.38 1010.70 1010.98 1011.22 1011.46 1011.66 1011.86 1012.06 1012.26 1012.38 1012.50 1012.66 1012.86 1012.98 1013.14 1013.26 1013.46 1013.66 1013.86 1014.06 1014.26 1014.54 1014.82 1015.10 1015.38 1015.62 1015.82 1016.06 1016.34 1016.58 1016.78 1016.98 1017.10 1017.14 1017.10 1017.10 1017.10 1017.14 1017.22 1017.22 1017.26 1017.30
1006.46 1006.54 1006.70 1006.90 1007.10 1007.26 1007.46 1007.66 1007.90 1008.10 1008.22 1008.38 1008.38 1008.42 1008.50 1008.58 1008.66 1008.62 1008.62 1008.70 1008.78 1008.90 1009.06 1009.22 1009.42 1009.70 1009.98 1010.30 1010.66 1010.94 1011.22 1011.50 1011.74 1011.94 1012.06 1012.22 1012.30 1012.38 1012.54 1012.74 1012.86 1012.94 1013.10 1013.30 1013.50 1013.78 1014.02 1014.26 1014.54 1014.86 1015.14 1015.42 1015.66 1015.90 1016.06 1016.26 1016.50 1016.66 1016.74 1016.74 1016.74 1016.78 1016.78 1016.86 1016.94 1016.94 1016.98 1017.06 1017.10
1005.94 1006.10 1006.30 1006.54 1006.74 1006.94 1007.14 1007.34 1007.50 1007.70 1007.82 1007.90 1007.94 1008.06 1008.14 1008.22 1008.22 1008.26 1008.38 1008.58 1008.66 1008.78 1008.94 1009.14 1009.38 1009.66 1009.94 1010.26 1010.62 1010.94 1011.18 1011.42 1011.74 1011.94 1012.06 1012.22 1012.30 1012.38 1012.50 1012.62 1012.70 1012.78 1012.94 1013.18 1013.42 1013.70 1014.02 1014.38 1014.66 1014.94 1015.22 1015.46 1015.70 1015.94 1016.10 1016.22 1016.30 1016.30 1016.30 1016.34 1016.38 1016.50 1016.62 1016.66 1016.74 1016.78 1016.78 1016.86 1016.94
1005.50 1005.74 1005.94 1006.18 1006.38 1006.62 1006.82 1006.98 1007.18 1007.30 1007.38 1007.42 1007.50 1007.54 1007.66 1007.78 1007.86 1008.02 1008.22 1008.38 1008.50 1008.62 1008.78 1008.94 1009.22 1009.50 1009.86 1010.18 1010.50 1010.78 1010.98 1011.18 1011.38 1011.62 1011.90 1012.18 1012.38 1012.42 1012.46 1012.54 1012.66 1012.78 1012.98 1013.22 1013.46 1013.74 1014.06 1014.42 1014.78 1015.02 1015.22 1015.46 1015.66 1015.86 1015.94 1015.94 1015.90 1015.86 1015.86 1015.94 1016.06 1016.18 1016.30 1016.38 1016.50 1016.58 1016.66 1016.70 1016.78
1005.22 1005.46 1005.66 1005.82 1006.02 1006.22 1006.46 1006.66 1006.78 1006.90 1006.94 1006.94 1007.06 1007.14 1007.26 1007.38 1007.50 1007.70 1007.94 1008.10 1008.22 1008.38 1008.54 1008.78 1009.02 1009.30 1009.58 1009.86 1010.18 1010.46 1010.66 1010.78 1010.94 1011.18 1011.46 1011.82 1012.18 1012.34 1012.42 1012.50 1012.66 1012.82 1013.10 1013.38 1013.66 1013.90 1014.10 1014.38 1014.70 1014.94 1015.18 1015.42 1015.58 1015.66 1015.58 1015.50 1015.50 1015.50 1015.54 1015.66 1015.74 1015.82 1015.94 1016.06 1016.22 1016.34 1016.46 1016.50 1016.62
1005.02 1005.26 1005.42 1005.54 1005.66 1005.86 1006.06 1006.22 1006.34 1006.42 1006.50 1006.58 1006.74 1006.86 1006.94 1007.06 1007.22 1007.42 1007.66 1007.82 1007.94 1008.14 1008.34 1008.58 1008.78 1009.06 1009.34 1009.58 1009.86 1010.10 1010.34 1010.46 1010.58 1010.74 1010.94 1011.22 1011.62 1011.98 1012.22 1012.46 1012.70 1012.94 1013.22 1013.54 1013.78 1013.98 1014.14 1014.30 1014.50 1014.74 1015.02 1015.22 1015.34 1015.38 1015.30 1015.22 1015.22 1015.22 1015.30 1015.34 1015.42 1015.54 1015.66 1015.78 1015.94 1016.06 1016.14 1016.22 1016.34
1004.78 1005.02 1005.14 1005.22 1005.38 1005.50 1005.58 1005.70 1005.86 1005.98 1006.14 1006.26 1006.42 1006.58 1006.66 1006.82 1007.02 1007.22 1007.42 1007.62 1007.78 1007.94 1008.18 1008.38 1008.58 1008.82 1009.10 1009.30 1009.54 1009.74 1009.94 1010.10 1010.26 1010.38 1010.46 1010.62 1011.02 1011.46 1011.90 1012.26 1012.66 1013.02 1013.34 1013.66 1013.90 1014.06 1014.18 1014.26 1014.38 1014.62 1014.78 1014.94 1014.98 1015.02 1015.02 1014.94 1014.94 1014.98 1015.02 1015.10 1015.18 1015.26 1015.38 1015.50 1015.54 1015.66 1015.78 1015.94 1016.02
1004.42 1004.66 1004.78 1004.94 1005.10 1005.14 1005.14 1005.22 1005.38 1005.54 1005.66 1005.82 1005.98 1006.18 1006.38 1006.66 1006.86 1007.10 1007.22 1007.38 1007.50 1007.74 1007.98 1008.14 1008.34 1008.58 1008.82 1009.06 1009.18 1009.34 1009.50 1009.70 1009.90 1010.06 1010.18 1010.34 1010.62 1011.06 1011.58 1012.10 1012.50 1012.86 1013.22 1013.54 1013.78 1013.98 1014.10 1014.22 1014.38 1014.54 1014.66 1014.66 1014.70 1014.70 1014.66 1014.66 1014.70 1014.74 1014.78 1014.86 1014.94 1014.98 1015.10 1015.14 1015.18 1015.26 1015.42 1015.54 1015.66
1003.94 1004.18 1004.42 1004.66 1004.78 1004.78 1004.78 1004.86 1004.94 1005.02 1005.14 1005.38 1005.58 1005.86 1006.14 1006.42 1006.62 1006.78 1006.94 1007.10 1007.26 1007.46 1007.66 1007.78 1008.06 1008.34 1008.62 1008.78 1008.90 1009.02 1009.22 1009.42 1009.66 1009.86 1010.06 1010.30 1010.54 1010.90 1011.34 1011.86 1012.34 1012.66 1012.98 1013.26 1013.50 1013.74 1013.94 1014.06 1014.26 1014.38 1014.42 1014.42 1014.38 1014.38 1014.38 1014.38 1014.42 1014.50 1014.58 1014.62 1014.66 1014.70 1014.74 1014.78 1014.78 1014.90 1015.06 1015.18 1015.34
1003.50 1003.78 1004.06 1004.26 1004.38 1004.46 1004.50 1004.50 1004.50 1004.54 1004.70 1005.02 1005.34 1005.66 1005.90 1006.10 1006.26 1006.42 1006.58 1006.78 1006.94 1007.10 1007.22 1007.46 1007.74 1008.02 1008.22 1008.38 1008.58 1008.82 1009.10 1009.30 1009.50 1009.78 1010.06 1010.38 1010.66 1010.98 1011.34 1011.66 1012.02 1012.38 1012.70 1012.94 1013.18 1013.42 1013.66 1013.86 1014.02 1014.06 1014.06 1014.10 1014.06 1014.06 1014.10 1014.10 1014.14 1014.22 1014.26 1014.34 1014.34 1014.38 1014.38 1014.42 1014.50 1014.58 1014.70 1014.82 1014.98
1003.22 1003.46 1003.74 1003.90 1004.06 1004.10 1004.10 1004.14 1004.22 1004.34 1004.50 1004.82 1005.10 1005.38 1005.58 1005.74 1005.86 1005.94 1006.10 1006.34 1006.50 1006.70 1006.94 1007.22 1007.46 1007.66 1007.82 1007.98 1008.30 1008.62 1008.90 1009.10 1009.38 1009.66 1009.94 1010.26 1010.66 1011.06 1011.34 1011.58 1011.82 1012.10 1012.42 1012.66 1012.90 1013.18 1013.42 1013.54 1013.66 1013.70 1013.78 1013.78 1013.86 1013.86 1013.78 1013.78 1013.86 1013.90 1013.94 1013.94 1013.94 1013.98 1014.06 1014.10 1014.22 1014.30 1014.38 1014.50 1014.70
1002.94 1003.14 1003.38 1003.58 1003.66 1003.70 1003.74 1003.82 1004.02 1004.22 1004.46 1004.66 1004.86 1005.06 1005.22 1005.34 1005.42 1005.58 1005.74 1005.98 1006.22 1006.50 1006.74 1006.98 1007.14 1007.34 1007.50 1007.78 1008.02 1008.30 1008.62 1008.94 1009.14 1009.42 1009.78 1010.22 1010.58 1010.94 1011.22 1011.50 1011.66 1011.94 1012.22 1012.50 1012.70 1012.94 1013.14 1013.22 1013.26 1013.34 1013.38 1013.50 1013.58 1013.58 1013.54 1013.50 1013.54 1013.54 1013.58 1013.58 1013.62 1013.70 1013.78 1013.86 1013.94 1014.06 1014.14 1014.26 1014.42
1002.66 1002.78 1002.98 1003.18 1003.26 1003.38 1003.50 1003.74 1003.98 1004.22 1004.42 1004.58 1004.66 1004.74 1004.82 1004.94 1005.10 1005.34 1005.54 1005.74 1005.94 1006.22 1006.46 1006.66 1006.78 1006.98 1007.22 1007.50 1007.78 1008.06 1008.38 1008.66 1008.94 1009.30 1009.70 1010.06 1010.42 1010.74 1011.06 1011.34 1011.62 1011.90 1012.18 1012.42 1012.62 1012.78 1012.90 1012.94 1012.94 1012.98 1013.06 1013.18 1013.26 1013.30 1013.26 1013.26 1013.30 1013.30 1013.38 1013.38 1013.42 1013.50 1013.58 1013.66 1013.70 1013.78 1013.94 1014.06 1014.22
1002.30 1002.42 1002.58 1002.70 1002.86 1003.06 1003.30 1003.62 1003.86 1004.10 1004.34 1004.46 1004.50 1004.54 1004.62 1004.70 1004.86 1005.06 1005.22 1005.46 1005.66 1005.90 1006.06 1006.30 1006.50 1006.66 1006.94 1007.22 1007.58 1007.94 1008.26 1008.66 1008.94 1009.26 1009.58 1009.90 1010.22 1010.54 1010.90 1011.18 1011.50 1011.78 1012.06 1012.30 1012.50 1012.62 1012.66 1012.66 1012.66 1012.66 1012.74 1012.90 1013.06 1013.10 1013.10 1013.10 1013.10 1013.14 1013.18 1013.22 1013.26 1013.34 1013.38 1013.46 1013.50 1013.62 1013.74 1013.86 1013.94
1001.98 1002.14 1002.26 1002.38 1002.54 1002.78 1003.10 1003.38 1003.66 1003.94 1004.10 1004.26 1004.34 1004.38 1004.42 1004.50 1004.62 1004.70 1004.90 1005.10 1005.38 1005.62 1005.86 1006.06 1006.34 1006.58 1006.86 1007.18 1007.50 1007.86 1008.22 1008.62 1008.94 1009.22 1009.50 1009.78 1010.06 1010.38 1010.74 1011.06 1011.38 1011.74 1012.02 1012.18 1012.22 1012.26 1012.26 1012.26 1012.30 1012.38 1012.50 1012.66 1012.78 1012.86 1012.94 1012.98 1013.02 1013.02 1013.02 1013.10 1013.10 1013.18 1013.22 1013.30 1013.38 1013.46 1013.50 1013.62 1013.74
1001.70 1001.90 1002.06 1002.22 1002.42 1002.66 1002.90 1003.18 1003.42 1003.66 1003.86 1004.02 1004.06 1004.14 1004.22 1004.30 1004.38 1004.46 1004.62 1004.90 1005.22 1005.46 1005.66 1005.94 1006.22 1006.58 1006.90 1007.18 1007.62 1007.98 1008.26 1008.54 1008.90 1009.22 1009.46 1009.74 1010.02 1010.34 1010.66 1010.94 1011.26 1011.58 1011.78 1011.86 1011.86 1011.78 1011.78 1011.78 1011.90 1012.06 1012.26 1012.46 1012.58 1012.66 1012.78 1012.86 1012.90 1012.86 1012.86 1012.94 1012.94 1013.02 1013.10 1013.14 1013.22 1013.26 1013.34 1013.38 1013.50
1001.54 1001.74 1001.94 1002.22 1002.38 1002.54 1002.74 1002.94 1003.22 1003.46 1003.66 1003.74 1003.86 1003.90 1003.94 1004.06 1004.14 1004.30 1004.50 1004.82 1005.10 1005.38 1005.58 1005.86 1006.22 1006.54 1006.82 1007.14 1007.62 1007.98 1008.22 1008.50 1008.86 1009.18 1009.42 1009.70 1009.94 1010.26 1010.62 1010.90 1011.10 1011.22 1011.30 1011.34 1011.34 1011.34 1011.38 1011.46 1011.62 1011.78 1012.02 1012.26 1012.38 1012.50 1012.58 1012.66 1012.74 1012.78 1012.78 1012.82 1012.82 1012.86 1012.94 1013.02 1013.10 1013.14 1013.18 1013.22 1013.26
1001.50 1001.70 1001.94 1002.18 1002.34 1002.50 1002.66 1002.86 1003.10 1003.30 1003.38 1003.50 1003.58 1003.66 1003.74 1003.90 1004.06 1004.30 1004.54 1004.78 1005.06 1005.26 1005.50 1005.86 1006.22 1006.62 1006.94 1007.22 1007.66 1008.02 1008.30 1008.58 1008.78 1009.10 1009.38 1009.66 1009.90 1010.14 1010.46 1010.70 1010.78 1010.74 1010.70 1010.78 1010.82 1010.94 1011.14 1011.34 1011.46 1011.66 1011.86 1012.06 1012.14 1012.30 1012.42 1012.50 1012.62 1012.66 1012.66 1012.74 1012.78 1012.78 1012.86 1012.94 1012.98 1013.02 1013.02 1013.06 1013.14
1001.58 1001.78 1001.94 1002.14 1002.34 1002.50 1002.66 1002.82 1002.98 1003.10 1003.18 1003.30 1003.42 1003.62 1003.78 1004.02 1004.18 1004.38 1004.50 1004.70 1004.94 1005.18 1005.50 1005.90 1006.30 1006.78 1007.14 1007.46 1007.78 1008.10 1008.42 1008.62 1008.78 1009.02 1009.30 1009.54 1009.78 1009.98 1010.14 1010.30 1010.34 1010.34 1010.38 1010.58 1010.78 1010.98 1011.18 1011.34 1011.42 1011.62 1011.78 1011.94 1011.98 1012.10 1012.22 1012.38 1012.50 1012.54 1012.62 1012.66 1012.74 1012.78 1012.86 1012.94 1012.94 1012.94 1012.98 1013.02 1013.22
1001.66 1001.82 1001.98 1002.18 1002.38 1002.54 1002.66 1002.78 1002.94 1003.06 1003.18 1003.38 1003.54 1003.74 1003.94 1004.14 1004.30 1004.46 1004.62 1004.78 1004.94 1005.22 1005.50 1005.94 1006.42 1006.86 1007.22 1007.58 1007.90 1008.22 1008.46 1008.66 1008.82 1009.02 1009.22 1009.42 1009.62 1009.78 1009.90 1009.98 1010.06 1010.22 1010.42 1010.70 1010.94 1011.10 1011.22 1011.30 1011.38 1011.54 1011.70 1011.78 1011.90 1011.98 1012.10 1012.26 1012.38 1012.46 1012.54 1012.62 1012.70 1012.78 1012.90 1012.94 1013.02 1013.06 1013.10 1013.14 1013.34
1001.78 1001.90 1002.06 1002.22 1002.38 1002.50 1002.66 1002.86 1003.02 1003.22 1003.38 1003.54 1003.70 1003.86 1004.06 1004.22 1004.46 1004.62 1004.78 1004.94 1005.10 1005.38 1005.74 1006.18 1006.58 1006.94 1007.22 1007.58 1007.94 1008.22 1008.50 1008.78 1008.94 1009.10 1009.22 1009.38 1009.58 1009.78 1009.94 1010.06 1010.26 1010.50 1010.82 1011.10 1011.22 1011.26 1011.22 1011.22 1011.30 1011.46 1011.66 1011.70 1011.78 1011.94 1012.06 1012.18 1012.30 1012.38 1012.46 1012.54 1012.66 1012.78 1012.90 1013.02 1013.18 1013.22 1013.30 1013.38 1013.46
Wind_Speed
12 11 10 9 9 8 8 7 7 7 7 8 8 8 8 8 8 8 8 8 8 8 8 8 8 9 10 12 13 13 13 14 14 14 14 15 14 14 14 13 12 12 12 12 12 11 11 11 10 8 6 7 8 9 9 9 10 11 11 11 10 10 11 12 11 12 13 13 10
13 12 11 9 8 8 7 7 7 7 7 7 8 8 8 8 8 8 9 9 9 9 8 8 9 10 11 13 13 13 14 14 15 15 15 15 15 15 14 12 12 12 12 13 13 11 10 11 10 8 7 7 8 9 9 9 10 11 12 13 10 9 9 10 11 12 12 12 11
13 12 11 10 10 9 8 8 8 9 9 9 8 8 8 8 8 8 9 9 10 10 9 9 10 11 12 13 13 13 13 14 15 15 14 14 15 15 14 12 12 13 13 13 13 12 11 12 10 9 8 7 9 9 9 10 10 11 11 13 10 8 7 8 9 9 9 9 10
13 13 12 12 12 12 10 9 10 10 10 9 9 9 8 8 8 8 9 10 11 11 10 10 11 11 12 13 13 13 13 14 15 15 14 14 14 15 14 13 13 13 13 13 13 13 13 12 10 9 8 9 10 10 9 8 10 10 10 10 8 7 7 7 7 7 7 8 9
13 13 12 12 13 13 12 10 11 11 10 9 8 8 8 8 8 9 9 10 10 10 11 12 11 11 11 12 14 14 14 14 14 14 14 14 15 14 14 13 14 13 13 13 14 14 13 13 10 8 9 10 9 9 9 9 10 10 9 7 7 6 7 6 6 6 6 7 7
14 14 13 12 13 13 11 11 11 11 10 9 10 10 10 9 9 9 10 10 11 11 12 12 11 11 11 13 13 14 14 14 13 13 14 15 14 14 14 14 14 14 13 13 14 14 14 13 10 9 8 8 9 9 10 11 10 9 9 7 7 7 6 7 6 6 6 8 9
15 15 14 14 14 13 12 12 11 11 10 10 12 13 13 12 12 12 13 12 11 11 11 10 11 11 12 13 13 13 13 13 13 14 14 14 14 15 15 15 15 15 14 14 14 14 13 13 10 9 8 8 7 9 11 11 10 9 9 9 8 7 7 8 7 7 8 10 12
15 15 15 15 15 14 14 14 12 11 10 10 12 14 15 15 15 15 14 13 12 11 11 10 12 13 14 13 13 14 14 14 14 14 14 14 15 15 16 15 15 16 16 15 14 14 14 12 10 9 9 8 7 8 10 12 12 12 11 11 9 8 8 9 8 8 9 12 13
14 15 15 15 15 15 15 15 14 13 12 12 14 15 16 16 16 16 14 13 12 12 12 11 13 15 15 15 15 14 14 14 15 15 14 14 15 15 15 15 15 16 16 15 15 15 15 12 10 9 9 8 8 9 11 13 14 14 13 12 10 10 9 9 10 10 11 12 13
15 15 15 15 15 15 15 15 15 15 15 15 15 15 15 15 15 15 14 12 12 12 13 13 14 15 16 16 15 15 14 14 15 15 15 15 16 16 16 15 16 16 16 15 15 15 15 12 11 11 11 10 11 11 12 13 15 16 14 10 10 11 12 11 11 12 12 12 13
16 16 15 15 15 16 15 16 15 15 15 15 16 16 15 15 15 14 13 12 13 14 15 14 15 15 15 16 15 15 14 14 14 15 16 16 17 17 17 16 16 17 16 15 14 14 13 12 13 14 14 12 13 13 13 14 15 16 15 11 12 13 14 13 13 12 12 12 13
17 16 16 15 16 16 16 16 15 15 16 16 17 17 16 15 16 15 15 15 15 15 15 15 15 16 15 14 15 15 15 15 15 16 16 17 18 18 17 17 17 17 17 16 15 13 12 13 15 16 17 16 13 12 13 15 15 16 16 14 14 14 14 14 14 12 11 12 13
18 17 17 17 17 17 17 17 15 15 16 17 17 17 16 16 17 17 17 17 17 16 15 15 16 16 16 15 15 15 15 16 17 17 17 17 17 17 17 17 17 17 17 16 15 14 14 15 16 18 18 18 14 13 13 15 15 15 15 15 14 14 14 14 14 12 11 11 12
19 19 18 18 19 18 18 17 16 16 16 18 18 17 16 16 16 17 17 18 18 17 16 16 15 15 16 17 16 17 17 17 17 18 18 17 17 17 17 17 17 17 17 15 15 16 17 17 17 18 18 18 16 15 14 14 14 14 15 14 14 13 13 13 13 12 11 11 11
20 20 20 20 20 19 18 18 16 16 17 18 18 17 16 15 16 16 16 18 18 18 16 16 15 15 16 18 18 18 18 18 18 18 18 18 17 17 17 17 17 17 17 16 16 17 18 19 18 18 17 17 17 15 14 13 13 13 13 13 13 12 12 11 11 11 11 11 11
20 21 21 21 20 19 18 18 15 15 16 17 17 16 16 15 15 15 16 18 17 16 16 17 16 16 16 17 18 18 18 17 18 18 18 18 18 18 18 18 18 18 18 17 17 17 18 18 17 17 17 17 16 15 14 14 13 13 12 12 11 10 10 9 9 9 10 10 10
19 19 19 20 21 21 20 18 16 15 15 16 16 16 15 14 14 14 15 17 16 16 17 18 17 16 16 16 16 16 16 17 17 17 18 18 18 18 19 19 19 18 18 18 18 18 18 17 15 15 15 15 15 15 14 14 13 12 11 10 8 8 7 7 7 8 9 10 11
20 19 18 19 20 20 20 20 18 17 16 17 16 16 15 14 14 14 15 16 17 17 19 20 18 17 16 16 15 14 15 16 16 17 17 17 17 17 17 18 17 17 17 17 18 18 18 17 14 13 13 12 13 13 13 12 11 10 9 8 7 6 6 7 8 10 11 12 14
21 21 20 20 20 19 18 18 17 16 15 15 15 14 14 15 16 16 16 17 18 19 20 20 19 18 17 17 16 14 14 15 16 16 16 15 15 16 16 16 16 16 16 17 17 17 17 15 13 12 12 11 11 11 10 10 9 9 8 8 7 8 9 11 13 14 14 15 16
22 22 22 22 22 20 19 18 17 15 14 12 13 14 16 17 17 18 19 20 20 20 21 21 20 18 18 17 16 14 13 13 14 15 15 14 15 15 16 16 16 16 16 16 16 16 15 14 13 12 12 11 10 9 8 8 8 8 8 8 10 12 14 16 17 17 17 17 17
23 23 23 23 22 22 21 20 19 18 17 16 16 17 17 16 17 18 20 21 20 20 21 21 20 18 17 15 14 13 12 10 11 12 13 14 15 15 15 15 15 15 15 15 15 14 14 13 12 11 10 9 8 8 8 8 8 8 9 11 13 15 17 18 17 17 17 16 16
23 22 22 22 22 22 21 21 20 20 20 20 20 19 19 18 18 19 19 18 17 17 17 17 16 15 14 12 11 11 10 8 9 10 11 12 13 14 14 14 15 15 15 15 14 13 12 11 10 9 9 8 8 8 8 8 9 11 13 15 16 16 16 16 16 16 15 15 14
23 22 21 20 20 20 20 20 20 21 21 22 22 22 21 21 20 20 19 17 16 16 15 14 13 12 11 10 9 9 9 9 9 9 10 10 12 13 13 13 14 14 14 13 12 11 9 8 8 9 9 9 9 9 9 11 12 14 15 17 16 16 15 15 14 14 13 12 12
23 21 20 18 19 20 20 19 20 21 22 23 23 23 23 22 21 19 18 17 17 16 15 12 11 11 11 11 11 12 12 12 12 12 11 10 11 11 11 11 11 11 11 8 8 7 7 7 8 9 9 9 9 10 11 14 15 15 16 16 16 15 15 15 14 13 13 12 12
21 19 19 18 20 21 20 20 20 21 22 23 23 23 23 23 21 20 18 17 17 16 14 12 12 11 12 13 14 14 14 15 15 14 13 12 12 11 10 9 9 8 7 5 6 8 9 9 9 9 9 9 10 11 13 15 15 15 15 14 15 14 14 14 14 14 14 14 13
18 17 18 19 21 22 22 22 22 22 22 22 22 23 23 22 20 19 18 17 16 14 13 12 12 12 12 13 14 14 15 14 14 15 15 15 14 13 11 8 7 6 5 5 9 12 13 13 12 11 10 10 11 12 12 13 14 14 14 14 14 14 13 14 14 14 14 14 14
17 16 17 19 20 22 23 23 23 22 23 22 22 22 22 21 18 18 18 17 15 13 12 12 12 12 11 12 14 15 15 14 14 15 15 15 15 14 12 9 7 6 5 8 12 14 15 15 14 13 12 11 12 12 12 11 12 13 13 14 13 14 14 14 15 15 15 14 14
18 17 17 17 19 21 23 24 23 23 23 23 23 22 21 20 19 18 17 16 14 13 12 12 11 11 10 10 13 15 15 15 14 13 14 14 14 14 12 9 8 8 9 13 16 17 16 16 16 15 15 13 12 12 12 12 11 11 12 12 13 14 15 15 15 14 14 14 13
19 17 16 17 19 21 23 24 25 25 24 23 22 21 20 20 20 19 18 17 16 15 13 11 10 9 10 11 12 14 14 14 12 11 11 12 13 13 12 11 10 10 13 18 19 19 18 17 17 18 18 17 13 11 10 10 10 10 10 10 12 13 14 15 14 13 13 13 12
19 16 16 17 19 20 22 24 25 25 23 21 20 20 20 20 20 20 20 19 18 17 14 11 10 11 13 14 13 13 12 12 11 10 10 11 12 12 12 12 12 13 16 21 21 20 19 19 20 21 21 21 16 13 10 9 9 9 10 10 12 14 15 15 15 15 14 12 12
18 16 15 17 18 20 21 23 24 23 22 20 19 20 20 20 21 21 21 20 18 16 13 12 13 15 16 16 14 13 12 11 11 11 12 12 12 12 12 12 13 14 17 22 21 21 20 21 22 23 23 23 18 14 12 10 10 10 10 11 13 15 15 15 16 16 15 14 13
18 17 16 17 18 19 20 21 21 21 21 21 20 20 21 21 21 20 19 18 17 15 13 13 15 16 17 16 15 14 14 12 12 12 12 12 12 12 12 13 14 15 17 21 21 21 21 23 24 24 24 24 19 16 14 12 11 11 12 13 14 15 15 14 14 15 16 15 14
20 19 18 18 19 19 18 18 17 18 19 20 20 20 21 21 20 19 18 17 16 15 15 15 16 17 17 17 15 14 13 12 12 11 11 11 13 13 13 13 13 14 17 21 21 21 23 24 25 25 24 24 19 16 15 13 11 10 11 12 13 14 15 15 14 14 14 15 13
20 20 19 19 19 18 16 14 14 15 17 18 19 20 20 20 19 19 19 17 15 15 14 14 15 16 15 15 14 12 11 9 9 10 11 12 13 14 14 12 10 12 16 21 21 23 24 25 25 25 24 22 17 15 14 13 11 10 10 11 12 13 13 14 14 14 14 14 13
20 19 19 18 17 15 14 13 13 14 16 17 18 19 19 19 19 19 18 16 14 13 13 13 13 12 12 11 10 10 10 9 10 11 12 13 14 14 14 12 11 13 17 21 23 24 25 26 25 24 22 19 14 12 12 12 11 11 11 12 12 12 13 13 13 13 13 13 13
18 17 15 14 13 12 11 12 12 13 15 16 18 19 19 18 17 16 14 13 12 13 13 12 11 11 10 10 9 9 10 11 12 12 13 13 14 14 14 13 12 15 18 22 24 26 26 26 25 23 20 15 11 10 10 10 10 10 11 12 12 12 12 12 12 12 12 12 13
15 13 11 10 10 10 11 11 12 13 14 15 16 18 18 18 16 14 12 10 11 12 12 11 11 10 10 10 10 10 11 12 13 13 13 13 14 14 14 13 14 16 19 24 25 26 26 24 23 21 17 12 9 8 8 8 8 9 10 11 11 11 11 10 10 11 12 12 12
11 9 9 9 9 9 10 10 11 12 14 15 16 16 16 16 15 12 10 9 11 12 12 10 9 9 9 9 10 11 12 13 14 14 14 14 14 14 14 15 16 17 19 22 23 23 22 21 20 18 15 10 9 8 7 7 7 7 8 9 9 9 9 8 8 9 10 12 11
7 7 7 8 8 8 9 10 11 12 13 14 13 13 13 12 11 9 8 8 10 11 10 10 10 9 9 10 11 11 12 13 14 14 14 14 14 15 16 17 17 17 17 17 17 17 17 17 16 15 13 9 8 7 6 6 6 7 7 7 7 7 7 7 6 7 8 10 8
5 5 6 6 7 7 8 9 10 10 9 9 10 10 9 8 7 5 5 6 8 8 9 9 10 11 11 10 11 12 13 13 13 13 14 14 14 15 16 17 16 14 11 7 8 10 13 14 14 13 12 8 7 6 5 5 6 7 7 7 6 6 5 5 4 4 4 5 4
3 4 5 5 6 6 7 7 6 5 4 4 5 5 4 4 4 5 5 6 7 7 8 9 11 12 12 11 11 12 12 12 12 13 13 13 12 12 12 11 9 5 1 3 2 4 8 11 11 12 11 8 7 6 5 5 6 7 8 7 6 5 5 4 3 2 2 2 2
Wind_Direction
182 179 178 179 180 182 183 183 182 182 184 186 188 188 189 192 194 196 197 198 199 201 202 203 203 202 202 200 198 198 201 204 206 206 207 207 209 208 207 206 204 201 200 201 200 200 201 203 202 201 200 202 206 209 211 211 210 210 211 210 213 214 214 213 214 214 213 214 214
185 183 182 180 181 184 186 186 184 184 187 190 191 192 193 194 198 199 200 201 203 203 204 205 204 204 202 200 199 199 201 203 205 207 208 210 210 210 208 207 205 203 201 202 202 202 202 202 202 203 204 204 208 211 213 212 210 211 212 212 212 213 214 216 217 216 215 215 215
186 186 185 185 186 188 190 191 190 190 192 194 195 195 197 198 201 203 204 205 205 205 206 206 206 204 202 200 199 200 202 203 205 206 208 211 211 211 209 207 206 205 205 204 204 204 204 203 204 205 206 207 208 211 214 213 211 212 214 214 213 212 212 216 217 216 215 215 215
190 190 190 191 192 194 195 196 195 194 195 197 199 200 201 202 204 206 207 208 207 207 208 208 207 205 202 200 201 202 204 205 205 206 209 211 211 211 210 208 207 207 207 207 207 207 207 205 206 208 210 211 212 213 213 210 209 212 215 216 213 210 210 215 214 213 213 215 216
195 195 195 195 196 198 199 201 199 198 198 200 201 203 204 205 207 208 209 209 208 208 208 209 209 206 203 202 202 204 205 206 206 207 209 211 211 210 209 208 208 207 207 208 208 209 208 206 209 211 213 213 213 213 213 209 208 211 215 215 211 209 209 211 207 206 209 214 213
199 199 200 200 199 201 203 205 203 202 201 202 204 205 206 206 207 208 209 211 210 209 209 209 210 208 205 203 203 204 206 206 207 208 209 211 211 209 208 208 209 208 208 208 208 208 208 207 212 214 215 215 217 217 215 210 208 210 212 213 210 209 209 211 208 206 208 212 213
202 202 203 203 202 203 205 207 205 204 203 204 206 207 208 208 208 209 210 212 210 208 207 206 208 208 207 203 203 204 205 205 206 207 209 210 210 209 207 207 208 209 208 207 207 207 208 209 214 217 216 213 218 218 216 211 207 208 210 212 207 205 205 210 207 205 206 211 211
204 205 205 205 204 205 206 208 207 205 205 207 207 208 209 210 210 210 210 211 211 209 206 205 208 210 210 206 204 204 204 205 206 207 208 209 209 208 207 206 208 209 209 207 206 207 208 210 215 218 218 214 216 216 214 210 208 208 210 212 209 206 206 209 206 204 205 208 208
206 206 207 208 207 207 208 209 208 208 208 209 210 210 209 210 211 211 210 211 212 211 209 208 208 209 210 209 207 205 205 206 207 207 207 208 208 208 208 206 208 209 209 208 208 208 209 211 216 218 217 213 213 212 210 207 208 210 211 212 210 207 206 208 205 204 204 206 207
207 207 207 208 209 209 209 210 210 211 211 213 212 211 210 210 211 211 211 210 211 212 211 210 208 208 209 210 209 208 206 206 208 207 207 208 209 209 209 208 208 209 210 209 209 209 210 213 217 218 217 213 212 210 207 203 207 209 210 209 207 205 204 205 204 203 204 206 208
209 208 208 209 209 209 210 210 212 213 213 214 214 213 211 209 211 212 212 211 212 213 213 212 209 207 208 209 210 209 207 206 208 208 208 209 209 210 211 210 209 210 210 210 208 208 210 213 217 218 217 213 212 209 206 202 206 208 209 208 205 204 203 203 203 203 205 207 209
210 210 210 210 210 210 210 211 212 213 214 215 215 214 213 211 211 212 213 213 214 215 214 213 210 208 208 209 210 209 209 208 209 210 210 210 210 211 211 212 211 211 211 210 208 208 210 213 216 217 216 213 212 210 208 204 206 208 209 208 205 204 203 204 203 204 205 206 210
211 211 211 211 211 210 211 212 213 214 215 216 216 215 214 214 212 212 213 214 215 216 216 214 212 211 210 210 210 209 209 208 208 210 211 211 210 210 210 212 212 212 211 210 208 208 211 214 216 217 217 215 213 211 209 205 206 207 208 207 205 205 205 205 204 204 206 207 210
210 211 211 211 210 211 211 212 213 214 215 216 216 216 216 215 213 213 213 215 216 217 217 215 214 213 212 211 210 209 208 208 208 209 210 211 209 208 208 211 211 211 210 209 208 209 211 214 215 217 217 215 213 210 207 203 204 206 207 207 206 207 207 207 205 204 205 207 212
210 211 211 211 210 211 211 212 214 215 216 216 216 216 215 216 214 213 214 216 218 218 218 217 216 215 214 213 212 210 209 208 208 209 210 211 210 209 208 209 210 210 209 208 208 210 212 215 215 215 215 214 211 208 204 200 202 205 207 208 207 207 207 206 203 202 202 206 212
211 212 212 211 211 211 211 211 213 215 216 217 216 216 215 217 215 214 215 217 218 219 219 219 219 218 216 214 213 212 210 209 208 209 210 211 211 210 209 209 209 209 210 209 209 211 213 215 214 213 212 211 209 206 202 199 201 204 206 207 206 205 204 203 199 198 199 203 210
213 213 213 212 212 212 212 212 213 215 216 217 217 216 216 217 217 216 215 216 218 219 220 220 220 219 217 214 212 211 210 210 209 209 210 211 211 211 210 210 209 209 210 210 211 212 213 213 213 212 209 208 206 203 200 197 198 200 202 203 202 201 200 199 198 199 201 203 209
214 214 214 214 214 214 214 215 215 216 217 217 217 216 216 217 218 218 217 216 218 219 220 221 220 220 218 214 210 209 209 210 210 210 210 210 211 211 212 212 211 210 210 210 212 212 212 211 210 208 206 203 202 200 197 193 191 191 193 194 195 198 201 205 206 207 207 207 210
215 214 214 214 215 215 215 216 217 218 219 218 217 216 216 216 217 218 218 217 217 218 219 220 220 219 217 214 210 207 207 209 210 210 210 210 211 213 215 216 215 213 212 212 213 213 212 210 206 203 201 199 197 194 190 183 180 179 181 184 192 200 206 210 211 211 211 210 211
215 214 214 214 214 214 215 215 216 217 219 220 221 220 218 216 216 217 218 219 217 216 217 218 217 216 215 213 209 206 206 208 209 210 211 212 214 216 218 219 218 216 215 214 215 215 213 209 204 200 197 193 188 181 174 167 166 169 175 186 198 206 211 213 213 213 213 212 211
216 215 215 214 213 213 213 214 214 215 217 219 221 221 219 218 219 220 221 221 218 217 216 217 216 215 213 210 205 202 201 203 206 210 214 216 219 220 221 220 219 218 217 215 215 214 212 207 200 193 185 175 166 159 155 153 159 172 186 199 208 212 215 216 216 216 215 214 213
217 216 215 214 214 213 213 212 212 213 215 217 220 221 222 222 222 223 223 225 224 221 219 217 215 212 208 201 194 190 190 192 201 210 217 221 224 224 223 221 221 220 219 216 213 211 207 199 185 172 160 150 147 147 149 156 172 188 201 210 215 217 219 220 220 219 218 216 214
217 217 216 215 214 213 212 211 211 212 214 216 217 219 221 223 225 226 226 228 228 226 223 219 214 209 203 194 188 186 189 197 208 216 223 228 231 230 227 222 221 220 218 215 210 203 192 172 156 147 144 144 147 154 164 177 190 201 209 215 218 220 222 223 223 222 220 218 216
216 216 215 214 214 213 213 212 212 213 214 216 217 218 220 222 223 224 225 226 228 227 224 219 213 207 202 197 197 199 203 209 213 214 216 224 232 232 228 221 219 217 216 211 199 182 165 146 142 142 145 151 161 174 187 197 204 210 214 218 220 222 223 223 223 222 221 220 219
215 214 214 214 214 213 213 212 212 213 215 216 217 218 220 221 222 223 223 224 225 223 220 214 206 200 195 195 198 202 205 207 205 203 203 210 220 224 223 218 216 214 209 195 163 150 145 144 147 151 157 166 182 195 204 209 213 215 218 220 221 223 224 224 223 222 222 222 221
213 213 213 214 215 214 214 214 214 214 215 216 217 219 220 222 222 222 223 223 222 219 213 207 201 195 191 193 198 201 204 204 201 199 199 202 208 210 210 206 206 205 195 166 147 144 144 148 152 157 167 182 197 207 214 218 218 219 219 220 221 221 222 222 222 222 222 222 221
212 211 212 213 215 216 216 215 215 215 216 217 217 219 220 221 221 222 222 223 220 215 208 203 198 192 190 193 198 202 204 204 202 202 201 200 200 200 199 195 192 186 170 152 148 148 149 152 157 164 176 194 206 214 219 223 222 220 220 220 220 220 221 221 221 221 221 221 219
212 209 209 210 213 216 218 218 217 217 217 217 217 218 219 219 220 221 221 222 219 213 206 203 197 191 189 193 198 201 202 203 203 204 202 199 196 192 189 184 181 172 160 152 152 153 155 158 166 176 188 201 212 219 223 226 224 221 220 220 221 221 221 222 222 221 220 219 216
213 209 206 207 211 215 219 220 220 219 218 217 217 217 218 219 220 220 220 220 219 215 211 205 197 192 193 197 199 200 200 201 202 202 200 196 192 187 181 175 173 165 158 155 156 158 161 166 177 188 198 205 213 220 225 225 223 221 220 221 221 221 221 221 221 220 218 215 213
214 209 205 206 210 214 217 220 221 221 221 219 218 218 218 219 220 220 219 219 219 218 214 206 199 197 199 201 199 198 198 200 199 197 194 191 188 184 178 172 169 163 159 158 159 161 167 176 188 197 204 209 215 221 226 224 221 219 219 221 222 222 222 222 221 220 218 215 213
215 209 206 207 211 214 217 220 222 223 223 222 220 219 219 220 221 221 220 219 219 217 212 204 201 202 202 202 199 198 198 198 196 193 191 187 183 179 174 169 167 162 159 159 160 166 175 186 196 204 208 211 215 220 225 224 219 217 218 220 221 221 221 221 220 219 218 216 214
217 213 209 209 213 215 218 220 221 223 224 224 223 222 221 222 222 222 221 220 218 214 209 203 203 204 204 203 203 203 201 197 193 190 187 182 178 173 168 166 164 161 160 161 164 172 183 195 202 208 211 212 215 220 224 225 221 219 219 221 221 220 219 218 218 218 217 216 214
221 218 215 214 215 217 218 218 220 221 223 225 225 224 224 223 223 222 222 221 218 213 208 204 204 205 204 202 202 201 199 194 189 183 176 170 166 163 161 161 161 160 161 164 170 181 192 201 207 210 212 213 216 220 224 226 223 221 220 221 221 220 218 217 217 216 215 214 213
223 222 221 219 219 218 217 215 215 217 219 223 225 226 226 225 224 223 221 220 217 213 209 206 205 205 204 201 198 195 190 183 175 168 163 158 156 156 157 160 160 161 165 170 179 190 199 206 210 213 214 214 216 220 225 226 226 224 221 221 220 219 217 216 215 214 213 211 211
224 224 223 223 221 218 214 209 208 210 214 218 222 225 226 226 225 223 221 217 214 212 209 207 205 203 200 194 189 183 175 165 160 158 157 155 154 155 157 159 160 165 171 179 189 197 204 209 213 215 216 215 217 221 225 227 227 226 223 221 220 218 215 213 212 212 211 210 211
224 223 223 221 218 214 208 202 200 203 207 213 218 221 223 224 224 222 218 212 210 209 208 204 199 196 192 185 176 169 164 157 155 154 154 154 154 155 157 161 166 173 181 189 197 204 208 212 214 216 216 215 217 220 222 225 227 226 225 222 220 217 213 211 210 209 210 210 211
223 221 218 215 212 208 204 198 196 198 203 208 213 217 220 222 222 220 215 207 205 205 203 197 190 187 184 176 165 160 157 153 152 152 153 154 155 157 161 168 177 185 192 198 203 208 212 214 216 216 215 214 215 217 218 221 225 226 225 224 221 216 211 208 207 208 209 210 210
221 216 211 207 207 205 201 196 195 199 203 208 212 215 218 221 221 219 212 202 202 201 196 185 176 172 167 158 151 150 152 152 152 153 154 155 158 162 169 179 190 197 201 204 208 211 214 216 218 216 214 213 213 213 213 215 219 222 222 222 219 214 209 207 206 209 210 210 208
217 211 206 202 202 201 200 198 200 203 206 210 213 215 217 220 220 216 208 199 199 195 188 173 161 153 145 139 140 146 151 154 155 155 156 160 165 171 178 187 197 204 208 209 210 213 215 218 219 215 210 209 210 209 207 208 213 216 218 218 216 211 207 207 207 210 211 210 204
206 203 200 198 199 200 201 202 205 208 210 212 214 215 214 212 209 199 188 185 185 179 169 157 149 143 139 136 141 147 152 157 158 160 163 168 174 180 186 193 202 208 211 211 211 213 216 219 217 210 204 204 206 204 202 203 208 212 214 215 210 205 201 201 202 206 208 204 196
180 185 187 189 191 195 197 199 198 197 195 195 195 192 185 171 157 152 152 154 152 148 144 140 141 140 140 140 144 149 154 159 163 168 173 178 182 186 192 200 207 212 236 14 310 237 225 221 213 202 196 198 200 200 199 200 207 211 212 211 204 196 189 184 180 177 175 173 173